ONEWEB-0108, 48076

Orbit data source: Space-Track

ONEWEB-0108, 48076 is a payload satellite owned by One Web (NAA) (UK) in LEO that was launched on Thu, 25 Mar 2021 UTC via a SOYUZ-2-1B launch vehicle from the Vostochny Cosmodrome (VOSTO). Payload-class satellites include a variety of spacecraft equipped with specific instruments for various scientific and technological missions. These include communications satellites like Starlink; space stations such as the ISS; scientific satellites like the Hubble; Earth observation satellites from companies like Planet Labs, Umbra, and HawkEye 360; GPS; miniature CubeSats for education and research; and military/defense satellites.

Loading next visibility...
Identifier
48076, 2021-025AL
Orbit
LEO
Country
Flag of UKUK
Related business
Manufacturer
One Web
Mission
Operational Commercial Communications
Bus & Motor
ARROW, Unknown motor
Mass
148 kg wet, ~140 kg dry
Launch date (UTC)
2021-03-25 (5 years ago)
Launch vehicle
SOYUZ-2-1B
Launch site
Vostochny Cosmodrome (VOSTO)
Object type
Payload
Rocket body
Debris
Shape & HBR
Trap Box + 2 Pan, 6.7 m
Radar Cross Section
3.464 m², Large (>1 m²)

Expand to show TLE details & history
Last TLE update: 2 days ago

TLE from 2 days ago
0 ONEWEB-0108
1 48076U 21025AL  26171.35146817 -.00000149  00000-0 -44378-3 0  9992
2 48076  87.8966 319.5836 0001846  89.6412 270.4928 13.13469672254066
Epoch: 2026-06-20T08:26Z
TLE epoch observation values (Epoch: 2026-06-20T08:26:06.849Z)
Latitude
-0.00011°
Longitude
-75.51228°
Altitude
1,212.647 km
Speed
7.248 km/s
True Right ascension
21h 18m 20s
True Declination
0° 00' 00"
Sunlit
Object was in full shadow at epoch
Visualization orbit readout
Latitude
Unknown
Longitude
Unknown
Altitude
Unknown
Speed
Unknown
Apparent Right ascension
Unknown
Apparent Declination
Unknown
Sunlit
N/A
Visualization observer readout
Local Sidereal Time
23:07:17
Azimuth
Unknown
Elevation
Unknown
Doppler factor
Unknown
Orbital elements
Apogee altitude
1,208.282 km
Perigee altitude
1,205.482 km
Semi-major axis
7,585.019 km
Eccentricity
0.00018
Inclination
87.8966°
RAAN
319.5836°
Arg. of periapsis
89.6412°
True anomaly
270.47165°
Mean anomaly
270.4928°
Eccentric anomaly
270.48222°
Mean motion
3.28555 °/min
Orbital period
109.57 mins
BSTAR
-0.00044378
Loading maneuver chart data...
Computing Atmospheric mass density...
Loading historical data...
Loading historical data...
Loading historical data...
Loading historical data...
Loading historical data...
Loading historical data...
Loading historical data...

Documentation

Showing up to 5 results
|